Zurück zum Katalog

STARLINK-36178

AktivKommunikationVLEO
NORAD 67025·PAYLOAD·🇺🇸 United States

Gestartet Dec 10, 2025 von Vandenberg Space Force Base

Loading…

Nächste Überflüge (nächste 24 Stunden)

TLE

AktuellSource: CelesTrak SupGP

Epoche: Sep 14, 2026, 21:36 UTC

1 67025C 25293Y   26257.90048611 -.00041637  00000+0 -34897-2 0  2574
2 67025  70.0014 337.3375 0003446 271.8793 354.2811 14.98346095    13

Verfolge STARLINK-36178 in Echtzeit mit AllMySat

Download on the App Store